This demonstration page uses our WeatherBlox Daily Observations layout. Learn more.

Left ArrowRight Arrow

39.51506, -84.39828

Hourly Observations for May 21, 2017

Temp ( °F °C ) Dew Point ( °F °C ) Humidity (%) Winds ( mph kmh ) Pressure ( in mb ) Visibility ( mi km ) Precip ( " mm )
12:15 am 00:15 Partly Cloudy 69 20.8 64 17.5 82 82 S 5 7 29.97 1015 10 16 0.00 0.00
12:35 am 00:35 Partly Cloudy 69 20.8 64 17.5 82 82 S 5 7 30.00 1016 10 16 0.00 0.00
12:55 am 00:55 Clear 69 20.8 64 17.7 83 83 SSW 5 7 29.97 1015 10 16 0.00 0.00
1:15 am 01:15 Partly Cloudy 69 20.8 64 17.7 83 83 Calm 29.97 1015 10 16 0.00 0.00
1:35 am 01:35 Partly Cloudy 69 20.8 64 17.9 84 84 Calm 29.97 1015 10 16 0.00 0.00
1:55 am 01:55 Clear 69 20.8 64 17.7 83 83 Calm 29.97 1015 10 16 0.00 0.00
2:15 am 02:15 Partly Cloudy 69 20.3 63 17.3 83 83 Calm 29.97 1015 10 16 0.00 0.00
2:35 am 02:35 Cloudy with Light Rain 69 20.8 65 18.1 85 85 Calm 29.97 1015 10 16 0.00 0.00
2:55 am 02:55 Mostly Cloudy 69 20.3 64 17.8 86 86 S 3 6 30.00 1016 10 16 0.00 0.00
3:15 am 03:15 Mostly Cloudy with Light Rain 69 20.8 64 18 84 84 Calm 30.00 1016 10 16 0.00 0.00
3:35 am 03:35 Cloudy with Drizzle 69 20.8 64 18 84 84 S 6 9 30.00 1016 10 16 0.00 0.00
3:55 am 03:55 Mostly Cloudy with Drizzle 69 20.8 65 18.1 85 85 SE 3 6 30.00 1016 10 16 0.00 0.00
4:15 am 04:15 Cloudy with Light Rain 69 20.8 65 18.1 85 85 SSE 3 6 29.97 1015 10 16 0.00 0.00
4:35 am 04:35 Cloudy with Light Rain 69 20.8 65 18.1 85 85 SSE 6 9 29.97 1015 10 16 0.00 0.00
4:55 am 04:55 Cloudy with Light Rain 69 20.8 64 18 84 84 Calm 29.97 1015 10 16 0.00 0.00
5:15 am 05:15 Cloudy with Rain 69 20.8 65 18.1 85 85 SSE 5 7 29.97 1015 10 16 0.00 0.00
5:35 am 05:35 Cloudy with Rain 69 20.8 65 18.1 85 85 S 6 9 30.00 1016 10 16 0.00 0.00
5:55 am 05:55 Cloudy with Drizzle 69 20.8 65 18.1 85 85 SSW 5 7 30.00 1016 10 16 0.00 0.00
6:15 am 06:15 Cloudy with Heavy Rain 69 20.8 65 18.2 85 85 S 7 11 30.00 1016 4 6 0.00 0.00
6:35 am 06:35 Cloudy with Light Rain 69 20.8 65 18.3 86 86 S 7 11 30.00 1016 7 11 0.00 0.00
6:55 am 06:55 Cloudy with Rain 69 20.8 65 18.3 86 86 S 7 11 30.00 1016 5 8 0.00 0.00
7:15 am 07:15 Cloudy with Light Rain 69 20.8 65 18.2 85 85 S 7 11 30.00 1016 10 16 0.00 0.00
7:35 am 07:35 Cloudy with Light Rain 69 20.8 65 18.3 86 86 SSW 7 11 30.00 1016 10 16 0.00 0.00
7:55 am 07:55 Cloudy 69 20.8 65 18.2 85 85 S 7 11 30.00 1016 10 16 0.00 0.00
8:15 am 08:15 Cloudy 69 20.8 65 18.1 85 85 S 10 17 30.00 1016 10 16 0.00 0.00
8:35 am 08:35 Cloudy 69 20.8 65 18.1 85 85 SSW 9 15 30.00 1016 10 16 0.00 0.00
8:55 am 08:55 Mostly Cloudy 69 20.8 64 17.7 83 83 SSW 12 19 30.00 1016 10 16 0.00 0.00
9:15 am 09:15 Mostly Cloudy 71 21.4 64 18 81 81 S 13 20 30.00 1016 10 16 0.00 0.00
9:35 am 09:35 Mostly Cloudy 72 22.1 66 18.7 81 81 SSW 9 15 30.00 1016 10 16 0.00 0.00
9:55 am 09:55 Mostly Cloudy 72 22.1 65 18.6 81 81 S 10 17 30.00 1016 10 16 0.00 0.00
10:15 am 10:15 Mostly Cloudy 71 21.7 65 18.3 81 81 S 8 13 30.00 1016 10 16 0.00 0.00
10:35 am 10:35 Mostly Cloudy 71 21.8 64 18 79 79 S 8 13 30.00 1016 10 16 0.00 0.00
10:55 am 10:55 Mostly Cloudy 73 22.7 65 18.6 78 78 S 10 17 30.00 1016 10 16 0.00 0.00
11:15 am 11:15 Mostly Cloudy 74 23.6 67 19.4 77 77 SSW 10 17 30.00 1016 10 16 0.00 0.00
11:35 am 11:35 Mostly Cloudy 74 23.6 66 19.1 76 76 S 10 17 30.00 1016 10 16 0.00 0.00
11:55 am 11:55 Cloudy 74 23.6 66 19 75 75 SSW 12 19 30.00 1016 10 16 0.00 0.00
12:15 pm 12:15 Cloudy 74 23.6 67 19.3 77 77 S 9 15 30.00 1016 10 16 0.00 0.00
12:35 pm 12:35 Cloudy 74 23.6 67 19.2 76 76 SSW 8 13 30.00 1016 10 16 0.00 0.00
12:55 pm 12:55 Cloudy 74 23.6 67 19.6 78 78 SSW 10 17 30.00 1016 10 16 0.00 0.00
1:15 pm 13:15 Mostly Cloudy 74 23.6 67 19.2 76 76 S 10 17 30.00 1016 10 16 0.00 0.00
1:35 pm 13:35 Mostly Cloudy 74 23.6 66 18.9 75 75 SSW 10 17 30.00 1016 10 16 0.00 0.00
1:55 pm 13:55 Mostly Cloudy 74 23.6 66 18.7 74 74 SSW 12 19 29.97 1015 10 16 0.00 0.00
2:15 pm 14:15 Partly Cloudy 74 23.6 65 18.4 73 73 SSW 10 17 29.97 1015 10 16 0.00 0.00
2:35 pm 14:35 Mostly Cloudy 74 23.6 66 18.7 74 74 SSW 13 20 29.97 1015 10 16 0.00 0.00
2:55 pm 14:55 Mostly Cloudy 77 25.1 68 19.9 73 73 SSW 12 19 29.97 1015 10 16 0.00 0.00
3:15 pm 15:15 Partly Cloudy 77 25.1 66 18.9 69 69 SSW 10 17 29.97 1015 10 16 0.00 0.00
3:35 pm 15:35 Mostly Cloudy 77 25.1 66 18.7 68 68 SSW 10 17 29.97 1015 10 16 0.00 0.00
3:55 pm 15:55 Cloudy 77 25.1 65 18.1 65 65 SW 9 15 29.97 1015 10 16 0.00 0.00
4:15 pm 16:15 Mostly Cloudy 77 25.1 64 17.6 63 63 SSW 14 22 29.94 1014 10 16 0.00 0.00
4:35 pm 16:35 Partly Cloudy 77 25.1 63 17.2 62 62 SSW 12 19 29.94 1014 10 16 0.00 0.00
4:55 pm 16:55 Mostly Cloudy 77 25.1 65 18.6 67 67 SSW 15 24 29.94 1014 10 16 0.00 0.00
5:15 pm 17:15 Cloudy 70 21.2 61 16.2 73 73 W 9 15 29.94 1014 10 16 0.00 0.00
5:35 pm 17:35 Cloudy with Heavy Rain 71 21.5 64 17.5 78 78 W 7 11 29.94 1014 3 5 0.00 0.00
5:55 pm 17:55 Mostly Cloudy 74 23.6 67 19.4 77 77 Calm 29.94 1014 10 16 0.00 0.00
6:15 pm 18:15 Mostly Cloudy 74 23.6 67 19.3 77 77 Calm 29.94 1014 10 16 0.00 0.00
6:35 pm 18:35 Mostly Cloudy 76 24.7 67 19.4 72 72 SSW 5 7 29.94 1014 10 16 0.00 0.00
6:55 pm 18:55 Partly Cloudy 77 25.1 67 19.6 72 72 SSW 8 13 29.94 1014 10 16 0.00 0.00
7:15 pm 19:15 Partly Cloudy 77 25.1 65 18.2 66 66 WSW 7 11 29.94 1014 10 16 0.00 0.00
7:35 pm 19:35 Partly Cloudy 74 23.6 63 17.1 67 67 SW 6 9 29.94 1014 10 16 0.00 0.00
7:55 pm 19:55 Partly Cloudy 74 23.6 61 16.3 64 64 WSW 9 15 29.94 1014 10 16 0.00 0.00
8:15 pm 20:15 Partly Cloudy 74 23.6 61 16.1 63 63 WSW 9 15 29.94 1014 10 16 0.00 0.00
8:35 pm 20:35 Partly Cloudy 74 23.6 62 16.9 66 66 WSW 7 11 29.94 1014 10 16 0.00 0.00
8:55 pm 20:55 Partly Cloudy 74 23.6 62 16.8 66 66 W 9 15 29.94 1014 10 16 0.00 0.00
9:15 pm 21:15 Clear 73 22.5 57 13.8 58 58 WSW 8 13 29.94 1014 10 16 0.00 0.00
9:35 pm 21:35 Clear 69 20.8 56 13.2 62 62 WSW 7 11 29.97 1015 10 16 0.00 0.00
9:55 pm 21:55 Clear 69 20.8 57 14.1 66 66 WSW 3 6 29.97 1015 10 16 0.00 0.00
10:15 pm 22:15 Clear 67 19.5 57 14.1 71 71 W 8 13 29.97 1015 10 16 0.00 0.00
10:35 pm 22:35 Clear 69 20.7 58 14.2 66 66 W 6 9 30.00 1016 10 16 0.00 0.00
10:55 pm 22:55 Clear 64 18 55 12.6 71 71 W 8 13 30.00 1016 10 16 0.00 0.00
11:15 pm 23:15 Clear 64 18 53 11.6 66 66 W 7 11 30.00 1016 10 16 0.00 0.00
11:35 pm 23:35 Clear 63 17.3 52 11.1 67 67 W 7 11 30.00 1016 10 16 0.00 0.00
11:55 pm 23:55 Clear 64 18 51 10.4 61 61 WNW 12 19 30.03 1017 10 16 0.00 0.00

Powered by AerisWeather